[[{"header":{"parameterUnit":"m.s-1","parameterCategory":2,"la1":30.2992,"la2":30.254,"lo1":-89.0895,"lo2":-89.0443,"dy":0.0025,"dx":0.0025,"nx":19,"ny":19,"refTime":"2026-03-16T09:00:00:Z","depth":"0","parameterNumber":2,"parameterNumberName":"U-component_of_CURRENTS"},"data":[0,0,0,-0.1999,-0.1998,-0.1942,-0.1942,-0.1994,-0.1995,0,0,0,0,0,0,0,0,0,0,0,-0.2007,-0.2006,-0.1999,-0.1998,-0.1942,-0.1942,-0.1994,-0.1995,0,0,0,0,0,0,0,0,0,0,0,-0.2008,-0.2007,-0.2005,-0.1997,-0.1942,-0.1942,-0.1994,-0.2007,0,0,0,0,0,0,0,0,0,0,-0.2046,-0.2028,-0.2007,-0.2005,-0.1997,-0.1942,-0.1942,-0.2006,-0.2006,-0.2052,0,-0.2022,0,-0.2014,-0.2,-0.2001,0,0,0,-0.2006,-0.2028,-0.2018,-0.2005,-0.1996,-0.1942,-0.197,-0.2005,-0.2005,-0.2052,-0.2023,-0.2024,-0.2015,-0.2001,-0.2001,-0.2103,-0.2103,0,0,-0.2009,-0.2001,-0.2017,-0.2017,-0.1958,-0.1971,-0.1968,-0.2004,-0.1994,-0.2023,-0.2025,-0.2016,-0.2001,-0.2002,-0.2102,-0.2103,0,0,0,-0.2012,-0.2003,-0.199,-0.2016,-0.1998,-0.1969,-0.1965,-0.1992,-0.1988,-0.2025,-0.2016,-0.2002,-0.2003,-0.2102,-0.2103,-0.2067,0,0,0,-0.2014,-0.2004,-0.1991,-0.1986,-0.1996,-0.1977,-0.1953,-0.1985,-0.1989,-0.2016,-0.2002,-0.2004,-0.2101,-0.2102,-0.2066,-0.2071,0,0,0,-0.2014,-0.2005,-0.1991,-0.1986,-0.1959,-0.1975,-0.1973,-0.1985,-0.1984,-0.2001,-0.2004,-0.2101,-0.2102,-0.2066,-0.2071,-0.2096,0,0,0,-0.202,-0.1953,-0.199,-0.1935,-0.196,-0.1952,-0.1972,-0.1963,-0.1971,-0.2002,-0.2101,-0.2103,-0.2066,-0.207,-0.2096,-0.2084,-0.2086,0,0,-0.1936,-0.1943,-0.1917,-0.1949,-0.1937,-0.1961,-0.1973,-0.1984,-0.2015,-0.2099,-0.21,-0.2067,-0.207,-0.2096,-0.2152,-0.2152,0,0,0,-0.1894,-0.1884,-0.1883,-0.1891,-0.1905,-0.1953,-0.197,-0.1993,-0.2041,-0.2024,-0.2101,-0.2106,-0.2122,-0.2115,-0.2116,-0.2064,-0.2108,-0.2108,-0.2108,-0.1779,-0.1824,-0.1814,-0.1875,-0.1893,-0.1952,-0.1983,-0.2037,-0.205,-0.2071,-0.2101,-0.2133,-0.2124,-0.2125,-0.2072,-0.2119,-0.2119,-0.2119,-0.2119,-0.1716,-0.1726,-0.181,-0.1819,-0.1901,-0.1933,-0.2024,-0.2039,-0.2111,-0.2111,-0.2128,-0.2108,-0.2123,-0.2067,-0.2117,-0.2117,-0.2118,-0.2118,-0.2118,-0.1686,-0.1694,-0.1725,-0.1779,-0.1843,-0.1922,-0.1999,-0.2055,-0.2097,-0.2117,-0.2135,-0.2135,-0.2067,-0.2125,-0.2125,-0.2126,-0.2126,-0.2126,-0.2126,-0.1627,-0.1663,-0.1669,-0.1737,-0.1769,-0.1848,-0.1982,-0.2042,-0.2109,-0.2125,-0.2125,-0.2081,-0.2136,-0.2113,-0.2128,-0.2127,-0.2127,-0.2127,-0.2127,-0.1558,-0.1577,-0.1586,-0.1611,-0.1695,-0.175,-0.1906,-0.2037,-0.2111,-0.2133,-0.2077,-0.2137,-0.2157,-0.2157,-0.2137,-0.2158,-0.2158,-0.2158,-0.2158,-0.1493,-0.151,-0.1499,-0.1522,-0.1589,-0.1696,-0.1787,-0.193,-0.2031,-0.2034,-0.2061,-0.2029,-0.203,-0.2041,-0.2044,-0.2021,-0.2012,-0.2012,-0.2011,-0.1427,-0.1443,-0.1407,-0.1448,-0.1524,-0.1622,-0.1674,-0.1799,-0.1941,-0.2,-0.1991,-0.1998,-0.1945,-0.1951,-0.1964,-0.1972,-0.1935,0,0]},{"header":{"parameterUnit":"m.s-1","parameterCategory":2,"la1":30.2992,"la2":30.254,"lo1":-89.0895,"lo2":-89.0443,"dy":0.0025,"dx":0.0025,"nx":19,"ny":19,"refTime":"2026-03-16T09:00:00:Z","depth":"0","parameterNumber":3,"parameterNumberName":"V-component_of_CURRENTS"},"data":[0,0,0,-0.029,-0.0287,-0.0118,-0.0117,0.001,0.001,0,0,0,0,0,0,0,0,0,0,0,-0.0347,-0.0346,-0.0291,-0.0287,-0.0118,-0.0117,0.0009,0.001,0,0,0,0,0,0,0,0,0,0,0,-0.0348,-0.0347,-0.0345,-0.0286,-0.0118,-0.0117,0.0009,-0.0094,0,0,0,0,0,0,0,0,0,0,-0.0246,-0.0282,-0.0347,-0.0345,-0.0285,-0.0118,-0.0117,-0.0098,-0.0088,-0.0095,0,-0.0065,0,-0.003,0.0016,0.0016,0,0,0,-0.0279,-0.029,-0.0253,-0.0345,-0.0284,-0.0119,-0.0192,-0.0092,-0.008,-0.0082,-0.0063,-0.0058,-0.0028,0.0017,0.0017,0.005,0.005,0,0,-0.0289,-0.0309,-0.0261,-0.0246,-0.0237,-0.0198,-0.0187,-0.0084,-0.0068,-0.0063,-0.0054,-0.0026,0.0017,0.0018,0.005,0.005,0,0,0,-0.032,-0.0316,-0.0279,-0.0252,-0.0217,-0.0193,-0.0181,-0.0072,-0.0062,-0.0052,-0.0024,0.0018,0.0019,0.005,0.005,-0.0032,0,0,0,-0.0326,-0.0335,-0.0283,-0.0293,-0.0218,-0.0128,-0.0172,-0.0069,-0.0055,-0.0025,0.0018,0.002,0.0051,0.005,-0.0029,-0.0074,0,0,0,-0.0356,-0.0338,-0.0319,-0.0295,-0.0225,-0.0129,-0.0111,-0.0064,-0.0039,0.0017,0.002,0.0051,0.005,-0.0026,-0.0069,-0.0073,0,0,0,-0.0382,-0.0342,-0.0319,-0.0277,-0.0227,-0.0171,-0.0111,-0.0055,-0.0012,0.0018,0.0051,0.005,-0.0026,-0.0066,-0.007,-0.0081,-0.0094,0,0,-0.035,-0.0338,-0.0319,-0.0296,-0.0273,-0.0194,-0.017,-0.0084,-0.0027,0.0012,0.0015,-0.003,-0.0069,-0.0072,-0.0121,-0.0132,0,0,0,-0.0323,-0.0323,-0.0307,-0.0289,-0.0242,-0.0226,-0.0138,-0.0103,-0.0049,-0.0003,-0.0021,-0.0043,-0.0042,-0.0043,-0.0052,0.0137,0.0047,0.0047,0.0047,-0.0328,-0.0327,-0.0328,-0.0328,-0.0302,-0.0246,-0.0219,-0.016,-0.0097,-0.0089,-0.0103,-0.0154,-0.0157,-0.0164,0.0031,-0.0089,-0.0089,-0.0089,-0.009,-0.0353,-0.0372,-0.0387,-0.039,-0.0385,-0.0367,-0.0307,-0.0259,-0.0216,-0.0166,-0.016,-0.0122,-0.0179,0.0033,-0.0095,-0.0094,-0.0093,-0.0093,-0.0092,-0.0398,-0.0408,-0.0418,-0.0459,-0.048,-0.0447,-0.047,-0.0394,-0.0297,-0.0299,-0.0251,-0.0249,-0.0066,-0.028,-0.028,-0.0281,-0.0281,-0.0281,-0.0281,-0.0434,-0.0449,-0.05,-0.053,-0.0568,-0.0592,-0.0557,-0.0526,-0.0426,-0.0345,-0.0343,-0.0061,-0.0212,-0.0208,-0.0285,-0.0284,-0.0284,-0.0283,-0.0283,-0.0477,-0.0486,-0.0575,-0.0624,-0.0718,-0.0799,-0.0744,-0.067,-0.0587,-0.0532,-0.0148,-0.0349,-0.0316,-0.0308,-0.0305,-0.0403,-0.0403,-0.0403,-0.0403,-0.0508,-0.0518,-0.0654,-0.0763,-0.0864,-0.0905,-0.097,-0.0819,-0.043,-0.0194,-0.0088,-0.0024,-0.0028,0.0028,0.0029,0.0041,0.0034,0.0035,0.0036,-0.0542,-0.0588,-0.0694,-0.081,-0.094,-0.1031,-0.1105,-0.0911,-0.0261,0.0076,0.0179,0.016,0.028,0.0259,0.0367,0.0353,0.0381,0,0]}],[{"header":{"parameterUnit":"m.s-1","parameterCategory":2,"la1":30.2992,"la2":30.254,"lo1":-89.0895,"lo2":-89.0443,"dy":0.0025,"dx":0.0025,"nx":19,"ny":19,"refTime":"2026-03-16T09:00:00:Z","depth":"2","parameterNumber":2,"parameterNumberName":"U-component_of_CURRENTS"},"data":[0,0,0,-0.1805,-0.1805,-0.1782,-0.1782,-0.1857,-0.1858,0,0,0,0,0,0,0,0,0,0,0,-0.1802,-0.1801,-0.1806,-0.1805,-0.1782,-0.1782,-0.1857,-0.1858,0,0,0,0,0,0,0,0,0,0,0,-0.1802,-0.1802,-0.1801,-0.1804,-0.1782,-0.1782,-0.1857,-0.1851,0,0,0,0,0,0,0,0,0,0,-0.1861,-0.1832,-0.1802,-0.1801,-0.1804,-0.1782,-0.1782,-0.185,-0.1852,-0.1894,0,-0.1868,0,-0.1867,-0.1865,-0.1865,0,0,0,-0.1817,-0.183,-0.183,-0.18,-0.1804,-0.1782,-0.1796,-0.185,-0.1852,-0.1897,-0.1869,-0.1871,-0.1868,-0.1865,-0.1866,-0.1967,-0.1967,0,0,-0.1818,-0.1801,-0.1828,-0.1831,-0.1772,-0.1796,-0.1795,-0.185,-0.184,-0.1869,-0.1873,-0.1869,-0.1866,-0.1867,-0.1966,-0.1967,0,0,0,-0.1813,-0.1801,-0.1799,-0.1828,-0.1816,-0.1795,-0.1794,-0.1837,-0.1837,-0.1873,-0.187,-0.1866,-0.1867,-0.1966,-0.1967,-0.1942,0,0,0,-0.1815,-0.1798,-0.1798,-0.1789,-0.1814,-0.1811,-0.1779,-0.1833,-0.1839,-0.187,-0.1866,-0.1868,-0.1966,-0.1966,-0.1942,-0.1945,0,0,0,-0.1808,-0.1798,-0.1788,-0.1788,-0.1774,-0.1809,-0.1812,-0.1834,-0.1838,-0.1865,-0.1869,-0.1965,-0.1966,-0.1942,-0.1945,-0.1969,0,0,0,-0.1804,-0.1756,-0.1787,-0.175,-0.1774,-0.1791,-0.1811,-0.1821,-0.184,-0.1867,-0.1966,-0.1967,-0.1942,-0.1944,-0.1968,-0.1928,-0.1928,0,0,-0.1744,-0.1748,-0.1734,-0.1761,-0.1769,-0.1796,-0.1824,-0.1848,-0.1876,-0.1956,-0.1957,-0.1942,-0.1945,-0.1968,-0.1984,-0.1981,0,0,0,-0.1718,-0.1711,-0.1717,-0.173,-0.1757,-0.1808,-0.1836,-0.186,-0.191,-0.1889,-0.1969,-0.1972,-0.1987,-0.1963,-0.1962,-0.1971,-0.1971,-0.1971,-0.1971,-0.1622,-0.1668,-0.1669,-0.173,-0.1756,-0.1821,-0.1857,-0.1908,-0.1923,-0.1943,-0.1971,-0.2,-0.1974,-0.1973,-0.1986,-0.1986,-0.1986,-0.1986,-0.1986,-0.1577,-0.1588,-0.1666,-0.1685,-0.1765,-0.1805,-0.1898,-0.1915,-0.1984,-0.1983,-0.1998,-0.1962,-0.197,-0.1984,-0.1984,-0.1985,-0.1985,-0.1985,-0.1985,-0.1544,-0.1552,-0.1585,-0.1643,-0.1711,-0.1793,-0.1868,-0.1929,-0.1973,-0.1993,-0.1987,-0.1987,-0.1985,-0.2001,-0.2001,-0.2001,-0.2002,-0.2002,-0.2002,-0.148,-0.1519,-0.1527,-0.16,-0.1633,-0.1713,-0.1849,-0.1906,-0.1966,-0.1979,-0.1979,-0.2006,-0.2006,-0.1988,-0.2004,-0.2003,-0.2003,-0.2003,-0.2003,-0.1409,-0.1431,-0.1441,-0.1467,-0.1554,-0.1599,-0.1757,-0.1871,-0.1946,-0.1958,-0.1978,-0.1978,-0.1989,-0.199,-0.1973,-0.1984,-0.1984,-0.1984,-0.1984,-0.1343,-0.1361,-0.1353,-0.1375,-0.1438,-0.1538,-0.1596,-0.1702,-0.1825,-0.1838,-0.1844,-0.1807,-0.1812,-0.1812,-0.1817,-0.1796,-0.1761,-0.176,-0.176,-0.1278,-0.1294,-0.126,-0.13,-0.1369,-0.145,-0.1455,-0.1475,-0.1586,-0.1748,-0.1774,-0.1975,-0.1937,-0.1938,-0.1951,-0.1954,-0.1926,0,0]},{"header":{"parameterUnit":"m.s-1","parameterCategory":2,"la1":30.2992,"la2":30.254,"lo1":-89.0895,"lo2":-89.0443,"dy":0.0025,"dx":0.0025,"nx":19,"ny":19,"refTime":"2026-03-16T09:00:00:Z","depth":"2","parameterNumber":3,"parameterNumberName":"V-component_of_CURRENTS"},"data":[0,0,0,-0.0057,-0.0056,0.0037,0.0037,0.0136,0.0137,0,0,0,0,0,0,0,0,0,0,0,-0.0088,-0.0088,-0.0057,-0.0055,0.0037,0.0037,0.0136,0.0137,0,0,0,0,0,0,0,0,0,0,0,-0.0089,-0.0088,-0.0088,-0.0055,0.0036,0.0037,0.0136,0.0074,0,0,0,0,0,0,0,0,0,0,-0.0011,-0.0045,-0.0088,-0.0088,-0.0055,0.0036,0.0037,0.0072,0.0078,0.0085,0,0.0093,0,0.0111,0.0142,0.0142,0,0,0,-0.0042,-0.0051,-0.0026,-0.0088,-0.0054,0.0036,-0.0001,0.0076,0.0083,0.0094,0.0095,0.0099,0.0113,0.0143,0.0143,0.0152,0.0152,0,0,-0.0048,-0.0069,-0.0031,-0.0021,-0.0038,-0.0004,0.0001,0.008,0.0084,0.0095,0.0101,0.0115,0.0143,0.0144,0.0153,0.0152,0,0,0,-0.0071,-0.0073,-0.0049,-0.0026,-0.0011,-0.0002,0.0005,0.008,0.0088,0.0103,0.0116,0.0144,0.0144,0.0153,0.0152,0.007,0,0,0,-0.0073,-0.0087,-0.0052,-0.0063,-0.0013,0.0037,0.0003,0.0083,0.0092,0.0115,0.0144,0.0145,0.0154,0.0153,0.0073,0.0032,0,0,0,-0.0091,-0.0089,-0.0081,-0.0064,-0.003,0.0037,0.005,0.0086,0.01,0.0142,0.0145,0.0154,0.0153,0.0076,0.0037,0.0032,0,0,0,-0.0112,-0.0113,-0.0081,-0.0085,-0.0031,-0.0014,0.005,0.0075,0.0105,0.0144,0.0153,0.0152,0.0077,0.004,0.0035,0.0031,0.0017,0,0,-0.0127,-0.0115,-0.0119,-0.009,-0.01,-0.0025,-0.0033,0.0037,0.0091,0.013,0.0131,0.0072,0.0038,0.0032,-0.0033,-0.0044,0,0,0,-0.0134,-0.0142,-0.0139,-0.0137,-0.0109,-0.0098,-0.0027,0.0004,0.0047,0.0102,0.0073,0.0054,0.0053,0.0057,0.0047,0.0147,0.0147,0.0147,0.0148,-0.0182,-0.0178,-0.0203,-0.0197,-0.019,-0.0145,-0.0126,-0.0072,-0.0011,-0.0009,-0.0013,-0.0075,-0.0074,-0.008,-0.0008,-0.0009,-0.0009,-0.0009,-0.001,-0.0235,-0.0255,-0.0263,-0.0283,-0.0274,-0.0271,-0.0221,-0.0176,-0.0138,-0.0088,-0.0083,-0.0031,-0.0095,-0.0016,-0.0015,-0.0014,-0.0013,-0.0013,-0.0012,-0.0275,-0.0286,-0.03,-0.0346,-0.0372,-0.0347,-0.0373,-0.0306,-0.0217,-0.0221,-0.0169,-0.0167,-0.0111,-0.0203,-0.0203,-0.0203,-0.0203,-0.0204,-0.0204,-0.0303,-0.0322,-0.0374,-0.0411,-0.0451,-0.048,-0.0454,-0.0429,-0.0337,-0.0261,-0.026,-0.0139,-0.0133,-0.0121,-0.0207,-0.0207,-0.0206,-0.0206,-0.0206,-0.0339,-0.035,-0.0438,-0.0489,-0.0589,-0.0666,-0.0624,-0.0557,-0.0484,-0.0432,-0.0267,-0.0264,-0.023,-0.0221,-0.0211,-0.0315,-0.0315,-0.0315,-0.0315,-0.0362,-0.0374,-0.0507,-0.0616,-0.072,-0.0762,-0.0816,-0.0678,-0.0477,-0.0344,-0.0343,-0.0311,-0.0306,-0.0272,-0.0262,-0.0251,-0.0366,-0.0366,-0.0367,-0.0389,-0.0434,-0.0536,-0.0654,-0.0787,-0.0872,-0.0924,-0.074,-0.042,-0.0368,-0.0347,-0.032,-0.0267,-0.0262,-0.0201,-0.0189,-0.0168,0,0]}],[{"header":{"parameterUnit":"m.s-1","parameterCategory":2,"la1":30.2992,"la2":30.254,"lo1":-89.0895,"lo2":-89.0443,"dy":0.0025,"dx":0.0025,"nx":19,"ny":19,"refTime":"2026-03-16T09:00:00:Z","depth":"4","parameterNumber":2,"parameterNumberName":"U-component_of_CURRENTS"},"data":[0,0,0,-0.1229,-0.1233,-0.1406,-0.1407,-0.1497,-0.1497,0,0,0,0,0,0,0,0,0,0,0,-0.1178,-0.118,-0.1229,-0.1233,-0.1406,-0.1407,-0.1497,-0.1497,0,0,0,0,0,0,0,0,0,0,0,-0.1178,-0.1179,-0.1181,-0.1234,-0.1406,-0.1407,-0.1497,-0.1399,0,0,0,0,0,0,0,0,0,0,-0.1247,-0.1226,-0.1179,-0.1181,-0.1235,-0.1405,-0.1407,-0.1396,-0.1405,-0.138,0,-0.1423,0,-0.1455,-0.15,-0.15,0,0,0,-0.1234,-0.1219,-0.1257,-0.1182,-0.1236,-0.1405,-0.1328,-0.1402,-0.1412,-0.1392,-0.1425,-0.1429,-0.1457,-0.15,-0.1501,-0.1616,-0.1617,0,0,-0.1225,-0.1213,-0.125,-0.1264,-0.1299,-0.1323,-0.1334,-0.141,-0.1429,-0.1425,-0.1431,-0.1458,-0.1501,-0.1501,-0.1615,-0.1616,0,0,0,-0.1196,-0.1206,-0.1245,-0.1259,-0.1298,-0.1328,-0.134,-0.1427,-0.1438,-0.1433,-0.1459,-0.1501,-0.1501,-0.1614,-0.1616,-0.1623,0,0,0,-0.1191,-0.1189,-0.1241,-0.1236,-0.1298,-0.1384,-0.1355,-0.1434,-0.1443,-0.1459,-0.1501,-0.1502,-0.1613,-0.1615,-0.1621,-0.1614,0,0,0,-0.1167,-0.1187,-0.1211,-0.1235,-0.1308,-0.1384,-0.1402,-0.1437,-0.1458,-0.15,-0.1502,-0.1612,-0.1615,-0.1618,-0.1611,-0.1631,0,0,0,-0.1141,-0.1187,-0.1211,-0.1273,-0.1306,-0.1405,-0.1402,-0.1479,-0.152,-0.1501,-0.1613,-0.1616,-0.1618,-0.1609,-0.163,-0.1432,0,0,0,-0.1175,-0.1192,-0.1225,-0.125,-0.133,-0.1381,-0.1474,-0.1522,-0.1544,-0.1576,-0.158,-0.1621,-0.1611,-0.1631,-0.1567,0,0,0,0,-0.1219,-0.1239,-0.1271,-0.1328,-0.1401,-0.1472,-0.1535,-0.1568,-0.1633,-0.1581,-0.1665,-0.1659,-0.1671,-0.1553,-0.1626,-0.1626,-0.1626,-0.1626,-0.1625,-0.1219,-0.1255,-0.131,-0.1368,-0.1438,-0.154,-0.1599,-0.1658,-0.1667,-0.1712,-0.1698,-0.1762,-0.1643,-0.1741,-0.1741,-0.1741,-0.1741,-0.1741,-0.1741,-0.123,-0.1245,-0.1318,-0.1379,-0.1462,-0.1544,-0.1654,-0.1686,-0.1758,-0.1759,-0.177,-0.1611,-0.1743,-0.1743,-0.1743,-0.1742,-0.1742,-0.1742,-0.1742,-0.1188,-0.12,-0.1256,-0.1342,-0.1437,-0.1543,-0.162,-0.1703,-0.1761,-0.1785,-0.1669,-0.1775,-0.1736,-0.1797,-0.1797,-0.1797,-0.1797,-0.1797,-0.1797,-0.1108,-0.1165,-0.1199,-0.1303,-0.1359,-0.1455,-0.1607,-0.1655,-0.1736,-0.1663,-0.1792,-0.1781,-0.1779,-0.1741,-0.1799,-0.1798,-0.1798,-0.1798,-0.1798,-0.1027,-0.1067,-0.1103,-0.1155,-0.1275,-0.1334,-0.1505,-0.1559,-0.1595,-0.1569,-0.1599,-0.1608,-0.1584,-0.1587,-0.1541,-0.1541,-0.1539,-0.1536,0,-0.0957,-0.0983,-0.1016,-0.1062,-0.1121,-0.1252,-0.1273,-0.1364,-0.1431,-0.1373,-0.1587,-0.1618,-0.1624,-0.1595,-0.1595,-0.1539,0,0,0,-0.0897,-0.092,-0.0913,-0.0979,-0.1037,-0.1127,-0.1269,-0.1251,-0.1418,-0.1408,-0.1477,-0.1493,-0.1704,-0.1803,-0.1789,-0.1786,-0.1724,0,0]},{"header":{"parameterUnit":"m.s-1","parameterCategory":2,"la1":30.2992,"la2":30.254,"lo1":-89.0895,"lo2":-89.0443,"dy":0.0025,"dx":0.0025,"nx":19,"ny":19,"refTime":"2026-03-16T09:00:00:Z","depth":"4","parameterNumber":3,"parameterNumberName":"V-component_of_CURRENTS"},"data":[0,0,0,0.0062,0.0062,0.0089,0.0089,0.0151,0.0152,0,0,0,0,0,0,0,0,0,0,0,0.0052,0.0052,0.0062,0.0062,0.0089,0.0089,0.0151,0.0152,0,0,0,0,0,0,0,0,0,0,0,0.0052,0.0052,0.0052,0.0062,0.0089,0.0089,0.0151,0.0128,0,0,0,0,0,0,0,0,0,0,0.0101,0.0078,0.0052,0.0052,0.0062,0.0089,0.0089,0.0127,0.013,0.0142,0,0.0132,0,0.0137,0.0155,0.0155,0,0,0,0.0079,0.0075,0.0082,0.0052,0.0063,0.0089,0.0082,0.0128,0.0131,0.0145,0.0133,0.0135,0.0138,0.0155,0.0155,0.014,0.0139,0,0,0.0078,0.0062,0.008,0.0084,0.0052,0.0081,0.0082,0.013,0.0126,0.0133,0.0136,0.0139,0.0156,0.0156,0.014,0.014,0,0,0,0.0062,0.0061,0.0067,0.0081,0.008,0.0081,0.0083,0.0124,0.0126,0.0137,0.0139,0.0156,0.0156,0.0141,0.014,0.0068,0,0,0,0.0062,0.0051,0.0066,0.0058,0.0078,0.0097,0.0076,0.0122,0.0128,0.0139,0.0156,0.0157,0.0142,0.0141,0.0071,0.0035,0,0,0,0.0054,0.005,0.0048,0.0057,0.0061,0.0097,0.0101,0.0124,0.0129,0.0155,0.0157,0.0142,0.0141,0.0074,0.004,0.0032,0,0,0,0.0047,0.0015,0.0047,0.0012,0.006,0.0044,0.0101,0.0103,0.0118,0.0156,0.0141,0.014,0.0075,0.0043,0.0035,0.0012,0,0,0,-0.0,0.0009,-0.0012,0.0016,-0.002,0.0043,0.0013,0.0062,0.0105,0.0133,0.0132,0.007,0.004,0.0033,-0.0062,0,0,0,0,-0.0032,-0.0046,-0.0053,-0.0064,-0.0058,-0.0052,-0.0002,0.0022,0.0049,0.0105,0.0065,0.0048,0.0046,0.004,0.0134,0.0134,0.0134,0.0135,0.0135,-0.0101,-0.0098,-0.0138,-0.0135,-0.0143,-0.0115,-0.0104,-0.0062,-0.001,-0.0013,-0.0015,-0.0077,-0.0089,-0.0015,-0.0016,-0.0016,-0.0016,-0.0017,-0.0017,-0.0167,-0.0185,-0.0192,-0.0226,-0.022,-0.0231,-0.0197,-0.0159,-0.0133,-0.0088,-0.0085,-0.0042,-0.0024,-0.0023,-0.0022,-0.0021,-0.002,-0.002,-0.0019,-0.0194,-0.0204,-0.0225,-0.0275,-0.0309,-0.0298,-0.0326,-0.0275,-0.0204,-0.0209,-0.0178,-0.0118,-0.0106,-0.0193,-0.0194,-0.0194,-0.0194,-0.0194,-0.0194,-0.0205,-0.023,-0.0279,-0.0326,-0.0369,-0.0403,-0.0396,-0.0377,-0.0304,-0.0268,-0.0221,-0.0136,-0.013,-0.0115,-0.0198,-0.0197,-0.0197,-0.0196,-0.0196,-0.0224,-0.0238,-0.0318,-0.0371,-0.0473,-0.05,-0.0497,-0.0446,-0.0424,-0.0369,-0.0285,-0.028,-0.0248,-0.024,-0.0227,-0.0346,-0.0346,-0.0347,0,-0.0232,-0.0246,-0.0361,-0.0462,-0.0553,-0.0566,-0.057,-0.0531,-0.0428,-0.0423,-0.0402,-0.0309,-0.0304,-0.027,-0.0263,-0.025,0,0,0,-0.0246,-0.0283,-0.0368,-0.0478,-0.0593,-0.0584,-0.0571,-0.0551,-0.0443,-0.0422,-0.0362,-0.0358,-0.029,-0.0208,-0.0146,-0.0139,-0.0111,0,0]}]]